When you browse on this site, cookies collect data to enhance your experience and personalize the content and advertising you see.
Visit our Privacy Policy to learn more. By continuing to use the site, you agree to this use of cookies and data.

Météo par heure à Nha Trang

Ce jour, 10 Juillet, Vendredi

Heure Température Précipitation Vent Pression Humidité
00:00 +27°C° 0 mm 2 m/s 745 mmHg 87%
01:00 +27°C° 0 mm 2 m/s 745 mmHg 88%
02:00 +27°C° 0 mm 1 m/s 745 mmHg 87%
03:00 +27°C° 0 mm 1 m/s 744 mmHg 87%
04:00 +26°C° 0 mm 1 m/s 744 mmHg 87%
05:00 +27°C° 0 mm 1 m/s 744 mmHg 84%
06:00 +28°C° 0 mm 1 m/s 745 mmHg 81%
07:00 +29°C° 0 mm 1 m/s 745 mmHg 75%
08:00 +30°C° 0 mm 1 m/s 745 mmHg 69%
09:00 +32°C° 0 mm 2 m/s 746 mmHg 63%
10:00 +35°C° 0 mm 2 m/s 746 mmHg 57%
11:00 +35°C° 0 mm 3 m/s 745 mmHg 56%
12:00 +36°C° 0 mm 3 m/s 745 mmHg 55%
13:00 +36°C° 0 mm 4 m/s 745 mmHg 54%
14:00 +36°C° 0.1 mm 4 m/s 744 mmHg 58%
15:00 +35°C° 0.1 mm 4 m/s 744 mmHg 62%
16:00 +34°C° 0.1 mm 4 m/s 743 mmHg 65%
17:00 +33°C° 0.6 mm 4 m/s 744 mmHg 72%
18:00 +30°C° 0.6 mm 4 m/s 744 mmHg 79%
19:00 +29°C° 0.6 mm 3 m/s 744 mmHg 87%
20:00 +28°C° 0.4 mm 3 m/s 745 mmHg 88%
21:00 +28°C° 0.4 mm 3 m/s 745 mmHg 89%
22:00 +27°C° 0.4 mm 2 m/s 746 mmHg 90%
23:00 +27°C° 0 mm 2 m/s 746 mmHg 90%

Demain, 11 Juillet, Samedi

Heure Température Précipitation Vent Pression Humidité
00:00 +27°C° 0 mm 2 m/s 745 mmHg 90%
01:00 +27°C° 0 mm 2 m/s 745 mmHg 90%
02:00 +26°C° 0 mm 2 m/s 745 mmHg 89%
03:00 +26°C° 0 mm 2 m/s 744 mmHg 88%
04:00 +26°C° 0 mm 1 m/s 744 mmHg 87%
05:00 +27°C° 0 mm 1 m/s 745 mmHg 84%
06:00 +27°C° 0 mm 1 m/s 745 mmHg 82%
07:00 +28°C° 0 mm 1 m/s 745 mmHg 79%
08:00 +30°C° 0 mm 1 m/s 745 mmHg 72%
09:00 +32°C° 0 mm 2 m/s 745 mmHg 65%
10:00 +34°C° 0 mm 2 m/s 745 mmHg 59%
11:00 +34°C° 0.2 mm 2 m/s 745 mmHg 59%
12:00 +35°C° 0.2 mm 2 m/s 745 mmHg 60%
13:00 +35°C° 0.2 mm 2 m/s 744 mmHg 61%
14:00 +34°C° 0.2 mm 3 m/s 744 mmHg 63%
15:00 +34°C° 0.2 mm 4 m/s 743 mmHg 65%
16:00 +34°C° 0.2 mm 4 m/s 743 mmHg 67%
17:00 +32°C° 0.4 mm 4 m/s 743 mmHg 73%
18:00 +30°C° 0.4 mm 4 m/s 744 mmHg 79%
19:00 +29°C° 0.4 mm 3 m/s 745 mmHg 85%
20:00 +28°C° 0.1 mm 3 m/s 745 mmHg 87%
21:00 +28°C° 0.1 mm 3 m/s 745 mmHg 88%
22:00 +28°C° 0.1 mm 2 m/s 746 mmHg 89%
23:00 +27°C° 0 mm 2 m/s 746 mmHg 89%

Après-demain, 12 Juillet, Dimanche

Heure Température Précipitation Vent Pression Humidité
00:00 +27°C° 0 mm 2 m/s 746 mmHg 89%
01:00 +27°C° 0 mm 2 m/s 746 mmHg 89%
02:00 +27°C° 0 mm 2 m/s 745 mmHg 88%
03:00 +27°C° 0 mm 1 m/s 745 mmHg 88%
04:00 +27°C° 0 mm 1 m/s 744 mmHg 87%
05:00 +27°C° 0 mm 1 m/s 745 mmHg 84%
06:00 +28°C° 0 mm 1 m/s 745 mmHg 81%
07:00 +28°C° 0 mm 1 m/s 745 mmHg 79%
08:00 +30°C° 0 mm 1 m/s 745 mmHg 72%
09:00 +32°C° 0 mm 2 m/s 746 mmHg 66%
10:00 +34°C° 0 mm 2 m/s 746 mmHg 60%
11:00 +35°C° 0.2 mm 3 m/s 745 mmHg 59%
12:00 +35°C° 0.2 mm 4 m/s 745 mmHg 58%
13:00 +35°C° 0.2 mm 5 m/s 745 mmHg 57%
14:00 +35°C° 0.1 mm 5 m/s 744 mmHg 58%
15:00 +34°C° 0.1 mm 5 m/s 744 mmHg 60%
16:00 +34°C° 0.1 mm 5 m/s 743 mmHg 62%
17:00 +32°C° 0 mm 4 m/s 744 mmHg 68%
18:00 +30°C° 0 mm 4 m/s 744 mmHg 74%
19:00 +29°C° 0 mm 3 m/s 745 mmHg 80%
20:00 +28°C° 0 mm 3 m/s 745 mmHg 81%
21:00 +28°C° 0 mm 3 m/s 746 mmHg 82%
22:00 +28°C° 0 mm 3 m/s 746 mmHg 84%
23:00 +27°C° 0 mm 2 m/s 746 mmHg 83%

13 Juillet, Lundi

Heure Température Précipitation Vent Pression Humidité
00:00 +27°C° 0 mm 2 m/s 746 mmHg 83%
01:00 +27°C° 0 mm 2 m/s 745 mmHg 82%
02:00 +27°C° 0 mm 1 m/s 745 mmHg 80%
03:00 +27°C° 0 mm 1 m/s 745 mmHg 79%
04:00 +27°C° 0 mm 1 m/s 745 mmHg 77%
05:00 +27°C° 0 mm 1 m/s 745 mmHg 75%
06:00 +28°C° 0 mm 1 m/s 746 mmHg 72%
07:00 +28°C° 0 mm 1 m/s 746 mmHg 70%
08:00 +30°C° 0 mm 1 m/s 746 mmHg 65%
09:00 +32°C° 0 mm 1 m/s 746 mmHg 60%
10:00 +33°C° 0 mm 1 m/s 747 mmHg 55%
11:00 +35°C° 0 mm 2 m/s 746 mmHg 55%
12:00 +35°C° 0 mm 3 m/s 745 mmHg 55%
13:00 +35°C° 0 mm 4 m/s 745 mmHg 56%
14:00 +35°C° 0.2 mm 4 m/s 745 mmHg 59%
15:00 +34°C° 0.2 mm 4 m/s 744 mmHg 63%
16:00 +33°C° 0.2 mm 5 m/s 744 mmHg 67%
17:00 +32°C° 0.1 mm 4 m/s 744 mmHg 72%
18:00 +30°C° 0.1 mm 4 m/s 745 mmHg 77%
19:00 +29°C° 0.1 mm 3 m/s 745 mmHg 83%
20:00 +28°C° 0.3 mm 3 m/s 746 mmHg 85%
21:00 +28°C° 0.3 mm 3 m/s 746 mmHg 87%
22:00 +27°C° 0.3 mm 2 m/s 747 mmHg 88%
23:00 +27°C° 0.1 mm 2 m/s 747 mmHg 88%

14 Juillet, Mardi

Heure Température Précipitation Vent Pression Humidité
00:00 +27°C° 0.1 mm 2 m/s 746 mmHg 88%
01:00 +26°C° 0.1 mm 2 m/s 746 mmHg 88%
02:00 +26°C° 0 mm 2 m/s 746 mmHg 88%
03:00 +26°C° 0 mm 2 m/s 746 mmHg 87%
04:00 +26°C° 0 mm 1 m/s 745 mmHg 87%
05:00 +27°C° 0 mm 1 m/s 746 mmHg 84%
06:00 +27°C° 0 mm 1 m/s 746 mmHg 82%
07:00 +28°C° 0 mm 1 m/s 746 mmHg 79%
08:00 +30°C° 0 mm 1 m/s 747 mmHg 72%
09:00 +31°C° 0 mm 1 m/s 747 mmHg 64%
10:00 +33°C° 0 mm 1 m/s 747 mmHg 57%
11:00 +34°C° 0.1 mm 2 m/s 746 mmHg 59%
12:00 +34°C° 0.1 mm 3 m/s 746 mmHg 60%
13:00 +34°C° 0.1 mm 4 m/s 745 mmHg 62%
14:00 +34°C° 0.3 mm 4 m/s 745 mmHg 64%
15:00 +34°C° 0.3 mm 4 m/s 744 mmHg 66%
16:00 +33°C° 0.3 mm 4 m/s 744 mmHg 68%
17:00 +31°C° 0.1 mm 3 m/s 745 mmHg 74%
18:00 +30°C° 0.1 mm 3 m/s 745 mmHg 80%
19:00 +28°C° 0.1 mm 3 m/s 745 mmHg 86%
20:00 +28°C° 0.2 mm 3 m/s 746 mmHg 87%
21:00 +28°C° 0.2 mm 2 m/s 746 mmHg 89%
22:00 +27°C° 0.2 mm 2 m/s 747 mmHg 90%
23:00 +27°C° 0 mm 2 m/s 746 mmHg 90%

15 Juillet, Mercredi

Heure Température Précipitation Vent Pression Humidité
00:00 +27°C° 0 mm 1 m/s 746 mmHg 91%
01:00 +26°C° 0 mm 1 m/s 746 mmHg 91%
02:00 +26°C° 0 mm 1 m/s 745 mmHg 90%
03:00 +26°C° 0 mm 1 m/s 745 mmHg 90%
04:00 +26°C° 0 mm 1 m/s 745 mmHg 89%
05:00 +27°C° 0 mm 1 m/s 745 mmHg 86%
06:00 +27°C° 0 mm 1 m/s 746 mmHg 83%
07:00 +28°C° 0 mm 1 m/s 746 mmHg 80%
08:00 +30°C° 0 mm 1 m/s 746 mmHg 73%
09:00 +31°C° 0 mm 2 m/s 746 mmHg 67%
10:00 +34°C° 0 mm 2 m/s 746 mmHg 60%
11:00 +34°C° 0 mm 3 m/s 745 mmHg 59%
12:00 +35°C° 0 mm 4 m/s 745 mmHg 59%
13:00 +35°C° 0 mm 4 m/s 744 mmHg 59%
14:00 +35°C° 0.1 mm 4 m/s 744 mmHg 61%
15:00 +34°C° 0.1 mm 4 m/s 744 mmHg 64%
16:00 +34°C° 0.1 mm 4 m/s 743 mmHg 66%
17:00 +31°C° 0 mm 3 m/s 743 mmHg 72%
18:00 +30°C° 0 mm 3 m/s 744 mmHg 79%
19:00 +28°C° 0 mm 3 m/s 744 mmHg 85%
20:00 +28°C° 0 mm 2 m/s 744 mmHg 87%
21:00 +28°C° 0 mm 2 m/s 745 mmHg 89%
22:00 +27°C° 0 mm 2 m/s 745 mmHg 91%
23:00 +27°C° 0 mm 2 m/s 745 mmHg 91%
Voir plus